World > North America > United States > North Dakota

Underwood, North Dakota Regional Weather

Lat: 47.46N, Lon: 101.14W
Wx Zone: NDZ021Web Search

Our weather pages are very print friendly and they make great conversation starters.

Feedback


°F Click to change Underwood hourly weather to Imperial units.Click to change Underwood hourly weather to Metric units. °C
Underwood Weather Map
UTC Time: 5/16/2021, 18:01
Your Time:

Underwood, ND Regional Weather

Expires:202105161800;;212075
ASUS43 KBIS 161710
RWRND 

NORTH DAKOTA REGIONAL WEATHER ROUNDUP
NATIONAL WEATHER SERVICE BISMARCK ND
1200 PM CDT SUN MAY 16 2021

NOTE: "FAIR" INDICATES FEW OR NO CLOUDS BELOW 12,000 FEET WITH NO
SIGNIFICANT WEATHER AND/OR OBSTRUCTIONS TO VISIBILITY.



NDZ018>021-031>035-040>046-161800-
SOUTHWEST NORTH DAKOTA
  
CITY           SKY/WX    TMP DP  RH WIND       PRES   REMARKS
BISMARCK       SUNNY     77  44  30 S16G28    30.02F                  
DICKINSON      SUNNY     72  44  36 SW9G20    30.01S                  
GARRISON         N/A     77  44  30 SW18      29.99F                  
HETTINGER ARPT SUNNY     68  48  48 E7        30.04F                  
$$
 

SKY/WX - Weather  TMP - Temperature  DP - Dew Point  RH - Relative Humidity
WIND - Wind Direction/Speed PRES - Barometric Pressure VSB - Visibility
WCI - Wind Chill Index E13G22 Wind - East Wind 13 mph/Gusts of 22 mph